Time,TemperatureF,DewpointF,PressureIn,WindDirection,WindDirectionDegrees,WindSpeedMPH,WindSpeedGustMPH,Humidity,HourlyPrecipIn,Conditions,Clouds,dailyrainin,SoftwareType,DateUTC
2013-01-01 00:02:00,17.7,11.1,30.33,NW,324,0.0,0.0,75,0.00,,,0.00,VWS V14.01,2013-01-01 07:02:00,
2013-01-01 00:07:00,17.7,11.4,30.33,NNW,332,0.0,0.0,76,0.00,,,0.00,VWS V14.01,2013-01-01 07:07:00,
2013-01-01 00:12:00,17.8,11.2,30.33,NNW,332,0.0,0.0,75,0.00,,,0.00,VWS V14.01,2013-01-01 07:12:00,
2013-01-01 00:17:00,18.1,11.2,30.32,NNW,332,0.0,0.0,74,0.00,,,0.00,VWS V14.01,2013-01-01 07:17:00,
2013-01-01 00:22:00,18.1,11.5,30.32,NNW,332,0.0,0.0,75,0.00,,,0.00,VWS V14.01,2013-01-01 07:22:00,
2013-01-01 00:27:00,18.3,12.0,30.32,NNW,332,0.0,0.0,76,0.00,,,0.00,VWS V14.01,2013-01-01 07:27:00,
2013-01-01 00:30:00,18.1,11.8,30.31,NNW,332,0.0,0.0,76,0.00,,,0.00,VWS V14.01,2013-01-01 07:30:00,
2013-01-01 00:32:00,18.1,11.8,30.31,WNW,302,0.0,1.0,76,0.00,,,0.00,VWS V14.01,2013-01-01 07:32:00,
2013-01-01 00:37:00,18.4,11.5,30.31,NW,310,0.0,1.0,74,0.00,,,0.00,VWS V14.01,2013-01-01 07:37:00,
2013-01-01 00:42:00,18.8,11.6,30.31,NW,310,0.0,1.0,73,0.00,,,0.00,VWS V14.01,2013-01-01 07:42:00,
2013-01-01 00:47:00,19.1,11.9,30.31,NW,310,0.0,1.0,73,0.00,,,0.00,VWS V14.01,2013-01-01 07:47:00,
2013-01-01 00:52:00,19.1,12.2,30.31,NW,310,0.0,1.0,74,0.00,,,0.00,VWS V14.01,2013-01-01 07:52:00,
2013-01-01 00:57:00,19.1,12.2,30.31,NW,309,0.0,1.0,74,0.00,,,0.00,VWS V14.01,2013-01-01 07:57:00,
2013-01-01 01:00:00,19.1,12.2,30.30,NW,309,0.0,1.0,74,0.00,,,0.00,VWS V14.01,2013-01-01 08:00:00,
2013-01-01 01:02:00,19.2,12.0,30.30,WNW,303,0.0,0.0,73,0.00,,,0.00,VWS V14.01,2013-01-01 08:02:00,
2013-01-01 01:07:00,19.2,11.7,30.30,WNW,303,0.0,0.0,72,0.00,,,0.00,VWS V14.01,2013-01-01 08:07:00,
2013-01-01 01:12:00,18.9,11.7,30.30,WNW,303,0.0,0.0,73,0.00,,,0.00,VWS V14.01,2013-01-01 08:12:00,
2013-01-01 01:17:00,18.1,10.3,30.27,WNW,303,0.0,0.0,71,0.00,,,0.00,VWS V14.01,2013-01-01 08:17:00,
2013-01-01 01:22:00,17.5,10.9,30.27,WNW,303,0.0,0.0,75,0.00,,,0.00,VWS V14.01,2013-01-01 08:22:00,
2013-01-01 01:27:00,17.0,10.5,30.27,WNW,303,0.0,0.0,75,0.00,,,0.00,VWS V14.01,2013-01-01 08:27:00,
2013-01-01 01:30:00,16.7,10.2,30.29,NW,304,0.0,0.0,75,0.00,,,0.00,VWS V14.01,2013-01-01 08:30:00,
2013-01-01 01:32:00,16.5,10.9,30.29,NNW,336,0.0,0.0,78,0.00,,,0.00,VWS V14.01,2013-01-01 08:32:00,
2013-01-01 01:37:00,16.2,10.3,30.29,NNW,336,0.0,0.0,77,0.00,,,0.00,VWS V14.01,2013-01-01 08:37:00,
2013-01-01 01:42:00,15.6,9.4,30.29,NNW,336,0.0,0.0,76,0.00,,,0.00,VWS V14.01,2013-01-01 08:42:00,
2013-01-01 01:47:00,15.2,9.6,30.30,ESE,106,0.0,1.0,78,0.00,,,0.00,VWS V14.01,2013-01-01 08:47:00,
2013-01-01 01:52:00,15.6,10.5,30.30,NNE,29,0.0,1.0,80,0.00,,,0.00,VWS V14.01,2013-01-01 08:52:00,
2013-01-01 01:57:00,15.9,10.6,30.30,NNE,27,0.0,1.0,79,0.00,,,0.00,VWS V14.01,2013-01-01 08:57:00,
2013-01-01 02:00:00,16.1,10.8,30.30,NNE,27,0.0,1.0,79,0.00,,,0.00,VWS V14.01,2013-01-01 09:00:00,
2013-01-01 02:02:00,16.1,10.8,30.30,NNE,27,0.0,0.0,79,0.00,,,0.00,VWS V14.01,2013-01-01 09:02:00,
2013-01-01 02:07:00,15.9,9.7,30.30,NNE,27,0.0,0.0,76,0.00,,,0.00,VWS V14.01,2013-01-01 09:07:00,
2013-01-01 02:12:00,15.4,9.2,30.30,NNE,30,0.0,0.0,76,0.00,,,0.00,VWS V14.01,2013-01-01 09:12:00,
2013-01-01 02:17:00,15.2,9.3,30.31,NNE,30,0.0,0.0,77,0.00,,,0.00,VWS V14.01,2013-01-01 09:17:00,
2013-01-01 02:21:00,14.8,8.9,30.31,NE,37,0.0,0.0,77,0.00,,,0.00,VWS V14.01,2013-01-01 09:21:00,
2013-01-01 02:26:00,14.4,8.8,30.31,East,87,0.0,1.0,78,0.00,,,0.00,VWS V14.01,2013-01-01 09:26:00,
2013-01-01 02:30:00,14.3,9.0,30.33,East,87,0.0,1.0,79,0.00,,,0.00,VWS V14.01,2013-01-01 09:30:00,
2013-01-01 02:31:00,14.1,8.5,30.33,East,87,0.0,0.0,78,0.00,,,0.00,VWS V14.01,2013-01-01 09:31:00,
2013-01-01 02:36:00,13.8,8.5,30.33,East,89,0.0,1.0,79,0.00,,,0.00,VWS V14.01,2013-01-01 09:36:00,
2013-01-01 02:41:00,14.1,9.4,30.33,NE,39,0.0,1.0,81,0.00,,,0.00,VWS V14.01,2013-01-01 09:41:00,
2013-01-01 02:46:00,14.1,9.4,30.33,NE,39,0.0,1.0,81,0.00,,,0.00,VWS V14.01,2013-01-01 09:46:00,
2013-01-01 02:51:00,13.8,8.5,30.33,NE,39,0.0,1.0,79,0.00,,,0.00,VWS V14.01,2013-01-01 09:51:00,
2013-01-01 02:56:00,13.8,9.3,30.33,NE,39,0.0,1.0,82,0.00,,,0.00,VWS V14.01,2013-01-01 09:56:00,
2013-01-01 03:00:00,13.8,9.1,30.34,NE,39,0.0,1.0,81,0.00,,,0.00,VWS V14.01,2013-01-01 10:00:00,
2013-01-01 03:01:00,13.8,9.1,30.34,NE,39,0.0,0.0,81,0.00,,,0.00,VWS V14.01,2013-01-01 10:01:00,
2013-01-01 03:06:00,13.3,8.3,30.34,NE,39,0.0,0.0,80,0.00,,,0.00,VWS V14.01,2013-01-01 10:06:00,
2013-01-01 03:11:00,12.6,7.6,30.34,NE,39,0.0,0.0,80,0.00,,,0.00,VWS V14.01,2013-01-01 10:11:00,
2013-01-01 03:16:00,12.4,7.7,30.35,NE,39,0.0,0.0,81,0.00,,,0.00,VWS V14.01,2013-01-01 10:16:00,
2013-01-01 03:21:00,12.4,7.7,30.35,NE,39,0.0,0.0,81,0.00,,,0.00,VWS V14.01,2013-01-01 10:21:00,
2013-01-01 03:26:00,12.3,7.6,30.35,NE,39,0.0,0.0,81,0.00,,,0.00,VWS V14.01,2013-01-01 10:26:00,
2013-01-01 03:30:00,12.3,7.6,30.36,NE,39,0.0,0.0,81,0.00,,,0.00,VWS V14.01,2013-01-01 10:30:00,
2013-01-01 03:31:00,11.9,7.2,30.36,NE,39,0.0,0.0,81,0.00,,,0.00,VWS V14.01,2013-01-01 10:31:00,
2013-01-01 03:36:00,11.9,7.5,30.36,NE,39,0.0,0.0,82,0.00,,,0.00,VWS V14.01,2013-01-01 10:36:00,
2013-01-01 03:41:00,11.7,7.0,30.36,NE,39,0.0,0.0,81,0.00,,,0.00,VWS V14.01,2013-01-01 10:41:00,
2013-01-01 03:46:00,11.7,7.3,30.36,NE,39,0.0,0.0,82,0.00,,,0.00,VWS V14.01,2013-01-01 10:46:00,
2013-01-01 03:51:00,12.1,7.9,30.36,NE,39,0.0,0.0,83,0.00,,,0.00,VWS V14.01,2013-01-01 10:51:00,
2013-01-01 03:56:00,12.3,8.4,30.36,NE,55,0.0,0.0,84,0.00,,,0.00,VWS V14.01,2013-01-01 10:56:00,
2013-01-01 04:00:00,12.4,8.8,30.37,NE,54,0.0,0.0,85,0.00,,,0.00,VWS V14.01,2013-01-01 11:00:00,
2013-01-01 04:01:00,12.4,8.5,30.37,NE,54,0.0,0.0,84,0.00,,,0.00,VWS V14.01,2013-01-01 11:01:00,
2013-01-01 04:06:00,12.6,9.0,30.37,ENE,60,0.0,0.0,85,0.00,,,0.00,VWS V14.01,2013-01-01 11:06:00,
2013-01-01 04:11:00,12.8,8.9,30.37,ENE,60,0.0,0.0,84,0.00,,,0.00,VWS V14.01,2013-01-01 11:11:00,
2013-01-01 04:16:00,12.3,7.6,30.36,ENE,60,0.0,0.0,81,0.00,,,0.00,VWS V14.01,2013-01-01 11:16:00,
2013-01-01 04:21:00,12.1,7.9,30.36,ENE,60,0.0,0.0,83,0.00,,,0.00,VWS V14.01,2013-01-01 11:21:00,
2013-01-01 04:26:00,12.3,8.4,30.36,ENE,60,0.0,0.0,84,0.00,,,0.00,VWS V14.01,2013-01-01 11:26:00,
2013-01-01 04:30:00,12.3,8.4,30.38,NNW,343,0.0,0.0,84,0.00,,,0.00,VWS V14.01,2013-01-01 11:30:00,
2013-01-01 04:31:00,12.3,8.4,30.38,NNW,343,0.0,0.0,84,0.00,,,0.00,VWS V14.01,2013-01-01 11:31:00,
2013-01-01 04:36:00,14.0,10.6,30.38,NW,306,0.0,0.0,86,0.00,,,0.00,VWS V14.01,2013-01-01 11:36:00,
2013-01-01 04:41:00,15.2,10.7,30.38,NW,305,0.0,0.0,82,0.00,,,0.00,VWS V14.01,2013-01-01 11:41:00,
2013-01-01 04:46:00,16.1,10.8,30.36,NW,313,0.0,0.0,79,0.00,,,0.00,VWS V14.01,2013-01-01 11:46:00,
2013-01-01 04:51:00,16.5,11.1,30.36,NNW,336,0.0,0.0,79,0.00,,,0.00,VWS V14.01,2013-01-01 11:51:00,
2013-01-01 04:56:00,17.2,11.5,30.36,NW,309,0.0,0.0,78,0.00,,,0.00,VWS V14.01,2013-01-01 11:56:00,
2013-01-01 05:00:00,17.2,10.6,30.36,NW,309,0.0,0.0,75,0.00,,,0.00,VWS V14.01,2013-01-01 12:00:00,
2013-01-01 05:01:00,17.2,10.9,30.36,NW,309,0.0,0.0,76,0.00,,,0.00,VWS V14.01,2013-01-01 12:01:00,
2013-01-01 05:06:00,17.2,10.6,30.36,NW,309,0.0,0.0,75,0.00,,,0.00,VWS V14.01,2013-01-01 12:06:00,
2013-01-01 05:11:00,17.0,10.2,30.36,NW,304,0.0,0.0,74,0.00,,,0.00,VWS V14.01,2013-01-01 12:11:00,
2013-01-01 05:16:00,17.0,10.5,30.37,NNW,341,0.0,0.0,75,0.00,,,0.00,VWS V14.01,2013-01-01 12:16:00,
2013-01-01 05:21:00,17.0,9.9,30.37,NNW,341,0.0,0.0,73,0.00,,,0.00,VWS V14.01,2013-01-01 12:21:00,
2013-01-01 05:26:00,16.9,9.8,30.37,NNW,329,0.0,0.0,73,0.00,,,0.00,VWS V14.01,2013-01-01 12:26:00,
2013-01-01 05:30:00,16.5,8.8,30.37,NNW,329,0.0,0.0,71,0.00,,,0.00,VWS V14.01,2013-01-01 12:30:00,
2013-01-01 05:31:00,16.4,9.0,30.37,NNW,329,0.0,0.0,72,0.00,,,0.00,VWS V14.01,2013-01-01 12:31:00,
2013-01-01 05:36:00,15.4,8.0,30.37,NNW,329,0.0,0.0,72,0.00,,,0.00,VWS V14.01,2013-01-01 12:36:00,
2013-01-01 05:41:00,14.3,7.6,30.37,NNW,329,0.0,0.0,74,0.00,,,0.00,VWS V14.01,2013-01-01 12:41:00,
2013-01-01 05:46:00,13.6,7.5,30.38,North,353,0.0,0.0,76,0.00,,,0.00,VWS V14.01,2013-01-01 12:46:00,
2013-01-01 05:51:00,13.5,8.2,30.38,North,353,0.0,0.0,79,0.00,,,0.00,VWS V14.01,2013-01-01 12:51:00,
2013-01-01 05:56:00,13.5,8.2,30.38,North,353,0.0,0.0,79,0.00,,,0.00,VWS V14.01,2013-01-01 12:56:00,
2013-01-01 06:00:00,13.1,7.5,30.39,North,353,0.0,0.0,78,0.00,,,0.00,VWS V14.01,2013-01-01 13:00:00,
2013-01-01 06:01:00,12.8,7.2,30.39,North,354,0.0,0.0,78,0.00,,,0.00,VWS V14.01,2013-01-01 13:01:00,
2013-01-01 06:06:00,12.4,6.9,30.39,North,354,0.0,0.0,78,0.00,,,0.00,VWS V14.01,2013-01-01 13:06:00,
2013-01-01 06:11:00,12.3,7.3,30.39,North,358,0.0,0.0,80,0.00,,,0.00,VWS V14.01,2013-01-01 13:11:00,
2013-01-01 06:16:00,11.7,6.2,30.42,North,358,0.0,0.0,78,0.00,,,0.00,VWS V14.01,2013-01-01 13:16:00,
2013-01-01 06:21:00,11.9,7.2,30.42,North,0,0.0,0.0,81,0.00,,,0.00,VWS V14.01,2013-01-01 13:21:00,
2013-01-01 06:26:00,12.6,8.7,30.42,North,0,0.0,0.0,84,0.00,,,0.00,VWS V14.01,2013-01-01 13:26:00,
2013-01-01 06:30:00,12.9,8.7,30.40,North,0,0.0,0.0,83,0.00,,,0.00,VWS V14.01,2013-01-01 13:30:00,
2013-01-01 06:32:00,13.1,8.4,30.40,North,0,0.0,0.0,81,0.00,,,0.00,VWS V14.01,2013-01-01 13:32:00,
2013-01-01 06:37:00,12.8,7.2,30.40,North,0,0.0,0.0,78,0.00,,,0.00,VWS V14.01,2013-01-01 13:37:00,
2013-01-01 06:42:00,12.9,8.2,30.40,NNW,345,0.0,0.0,81,0.00,,,0.00,VWS V14.01,2013-01-01 13:42:00,
2013-01-01 06:47:00,13.6,8.6,30.41,NNW,333,0.0,0.0,80,0.00,,,0.00,VWS V14.01,2013-01-01 13:47:00,
2013-01-01 06:52:00,15.1,9.5,30.41,NW,326,0.0,0.0,78,0.00,,,0.00,VWS V14.01,2013-01-01 13:52:00,
2013-01-01 06:57:00,15.9,9.1,30.41,NW,307,0.0,1.0,74,0.00,,,0.00,VWS V14.01,2013-01-01 13:57:00,
2013-01-01 07:00:00,16.2,9.4,30.40,NW,307,0.0,1.0,74,0.00,,BKN080,0.00,VWS V14.01,2013-01-01 14:00:00,
2013-01-01 07:02:00,16.4,9.3,30.40,NW,307,0.0,0.0,73,0.00,,,0.00,VWS V14.01,2013-01-01 14:02:00,
2013-01-01 07:07:00,16.5,9.1,30.40,NW,307,0.0,0.0,72,0.00,,,0.00,VWS V14.01,2013-01-01 14:07:00,
2013-01-01 07:11:00,16.5,8.8,30.40,NW,307,0.0,0.0,71,0.00,,,0.00,VWS V14.01,2013-01-01 14:11:00,
2013-01-01 07:16:00,16.4,8.7,30.38,NW,311,0.0,0.0,71,0.00,,,0.00,VWS V14.01,2013-01-01 14:16:00,
2013-01-01 07:21:00,16.1,8.4,30.38,NW,311,0.0,0.0,71,0.00,,,0.00,VWS V14.01,2013-01-01 14:21:00,
2013-01-01 07:26:00,15.2,7.5,30.38,NW,311,0.0,0.0,71,0.00,,,0.00,VWS V14.01,2013-01-01 14:26:00,
2013-01-01 07:30:00,14.8,7.1,30.40,NW,311,0.0,0.0,71,0.00,,,0.00,VWS V14.01,2013-01-01 14:30:00,
2013-01-01 07:31:00,14.3,6.6,30.40,NW,311,0.0,0.0,71,0.00,,,0.00,VWS V14.01,2013-01-01 14:31:00,
2013-01-01 07:36:00,13.5,5.9,30.40,NW,311,0.0,0.0,71,0.00,,,0.00,VWS V14.01,2013-01-01 14:36:00,
2013-01-01 07:41:00,12.6,5.6,30.40,NW,311,0.0,0.0,73,0.00,,,0.00,VWS V14.01,2013-01-01 14:41:00,
2013-01-01 07:46:00,11.7,5.0,30.43,NW,311,0.0,0.0,74,0.00,,,0.00,VWS V14.01,2013-01-01 14:46:00,
2013-01-01 07:51:00,11.4,5.3,30.43,NW,311,0.0,0.0,76,0.00,,,0.00,VWS V14.01,2013-01-01 14:51:00,
2013-01-01 07:56:00,10.7,4.3,30.43,NW,311,0.0,0.0,75,0.00,,,0.00,VWS V14.01,2013-01-01 14:56:00,
2013-01-01 08:00:00,10.4,4.1,30.43,NW,311,0.0,0.0,75,0.00,,,0.00,VWS V14.01,2013-01-01 15:00:00,
2013-01-01 08:01:00,10.2,3.9,30.43,NW,311,0.0,0.0,75,0.00,,,0.00,VWS V14.01,2013-01-01 15:01:00,
2013-01-01 08:06:00,9.9,4.2,30.43,NW,311,0.0,0.0,77,0.00,,,0.00,VWS V14.01,2013-01-01 15:06:00,
2013-01-01 08:11:00,9.7,4.2,30.43,NW,311,0.0,0.0,78,0.00,,,0.00,VWS V14.01,2013-01-01 15:11:00,
2013-01-01 08:16:00,9.7,4.5,30.45,NW,311,0.0,0.0,79,0.00,,,0.00,VWS V14.01,2013-01-01 15:16:00,
2013-01-01 08:21:00,9.7,4.8,30.45,NW,311,0.0,0.0,80,0.00,,,0.00,VWS V14.01,2013-01-01 15:21:00,
2013-01-01 08:26:00,9.5,4.6,30.45,NW,311,0.0,0.0,80,0.00,,,0.00,VWS V14.01,2013-01-01 15:26:00,
2013-01-01 08:30:00,9.7,5.1,30.45,NW,311,0.0,0.0,81,0.00,,,0.00,VWS V14.01,2013-01-01 15:30:00,
2013-01-01 08:31:00,10.0,5.3,30.45,NW,311,0.0,0.0,81,0.00,,,0.00,VWS V14.01,2013-01-01 15:31:00,
2013-01-01 08:36:00,10.2,5.3,30.45,NW,311,0.0,0.0,80,0.00,,,0.00,VWS V14.01,2013-01-01 15:36:00,
2013-01-01 08:41:00,10.0,5.3,30.45,NW,311,0.0,0.0,81,0.00,,,0.00,VWS V14.01,2013-01-01 15:41:00,
2013-01-01 08:46:00,10.4,6.0,30.46,NW,311,0.0,0.0,82,0.00,,,0.00,VWS V14.01,2013-01-01 15:46:00,
2013-01-01 08:51:00,10.5,6.1,30.46,NW,311,0.0,0.0,82,0.00,,,0.00,VWS V14.01,2013-01-01 15:51:00,
2013-01-01 08:56:00,10.4,6.0,30.46,NW,311,0.0,0.0,82,0.00,,,0.00,VWS V14.01,2013-01-01 15:56:00,
2013-01-01 09:00:00,10.4,5.7,30.47,NW,311,0.0,0.0,81,0.00,,,0.00,VWS V14.01,2013-01-01 16:00:00,
2013-01-01 09:01:00,10.4,5.7,30.47,NW,311,0.0,0.0,81,0.00,,,0.00,VWS V14.01,2013-01-01 16:01:00,
2013-01-01 09:06:00,9.9,5.0,30.47,NW,311,0.0,0.0,80,0.00,,,0.00,VWS V14.01,2013-01-01 16:06:00,
2013-01-01 09:11:00,9.7,5.1,30.47,NW,311,0.0,0.0,81,0.00,,,0.00,VWS V14.01,2013-01-01 16:11:00,
2013-01-01 09:16:00,10.2,5.5,30.49,NW,311,0.0,0.0,81,0.00,,,0.00,VWS V14.01,2013-01-01 16:16:00,
2013-01-01 09:21:00,10.0,5.1,30.49,NW,311,0.0,0.0,80,0.00,,,0.00,VWS V14.01,2013-01-01 16:21:00,
2013-01-01 09:26:00,10.2,5.5,30.49,NW,311,0.0,0.0,81,0.00,,,0.00,VWS V14.01,2013-01-01 16:26:00,
2013-01-01 09:30:00,10.4,5.7,30.49,NW,311,0.0,0.0,81,0.00,,,0.00,VWS V14.01,2013-01-01 16:30:00,
2013-01-01 09:31:00,10.5,5.8,30.49,NW,311,0.0,0.0,81,0.00,,,0.00,VWS V14.01,2013-01-01 16:31:00,
2013-01-01 09:36:00,10.7,6.3,30.49,NW,311,0.0,0.0,82,0.00,,,0.00,VWS V14.01,2013-01-01 16:36:00,
2013-01-01 09:41:00,10.5,5.6,30.49,NW,311,0.0,0.0,80,0.00,,,0.00,VWS V14.01,2013-01-01 16:41:00,
2013-01-01 09:46:00,10.4,5.5,30.50,East,93,0.0,0.0,80,0.00,,,0.00,VWS V14.01,2013-01-01 16:46:00,
2013-01-01 09:51:00,10.7,6.0,30.50,East,93,0.0,0.0,81,0.00,,,0.00,VWS V14.01,2013-01-01 16:51:00,
2013-01-01 09:56:00,11.2,6.5,30.50,East,93,0.0,0.0,81,0.00,,,0.00,VWS V14.01,2013-01-01 16:56:00,
2013-01-01 10:00:00,11.6,6.9,30.50,East,93,0.0,0.0,81,0.00,,,0.00,VWS V14.01,2013-01-01 17:00:00,
2013-01-01 10:01:00,11.7,7.0,30.50,East,93,0.0,0.0,81,0.00,,,0.00,VWS V14.01,2013-01-01 17:01:00,
2013-01-01 10:06:00,11.9,6.9,30.50,East,93,0.0,0.0,80,0.00,,,0.00,VWS V14.01,2013-01-01 17:06:00,
2013-01-01 10:11:00,12.1,6.8,30.50,East,93,0.0,0.0,79,0.00,,,0.00,VWS V14.01,2013-01-01 17:11:00,
2013-01-01 10:16:00,12.3,6.8,30.50,East,93,0.0,0.0,78,0.00,,,0.00,VWS V14.01,2013-01-01 17:16:00,
2013-01-01 10:21:00,12.3,6.8,30.50,East,93,0.0,0.0,78,0.00,,,0.00,VWS V14.01,2013-01-01 17:21:00,
2013-01-01 10:26:00,11.7,5.9,30.50,East,93,0.0,0.0,77,0.00,,,0.00,VWS V14.01,2013-01-01 17:26:00,
2013-01-01 10:30:00,11.6,5.8,30.50,East,93,0.0,0.0,77,0.00,,,0.00,VWS V14.01,2013-01-01 17:30:00,
2013-01-01 10:31:00,11.4,5.9,30.50,East,93,0.0,0.0,78,0.00,,,0.00,VWS V14.01,2013-01-01 17:31:00,
2013-01-01 10:36:00,11.2,5.4,30.50,East,93,0.0,0.0,77,0.00,,,0.00,VWS V14.01,2013-01-01 17:36:00,
2013-01-01 10:41:00,10.9,5.1,30.50,East,93,0.0,0.0,77,0.00,,,0.00,VWS V14.01,2013-01-01 17:41:00,
2013-01-01 10:46:00,10.5,4.7,30.50,East,93,0.0,0.0,77,0.00,,,0.00,VWS V14.01,2013-01-01 17:46:00,
2013-01-01 10:51:00,10.5,4.7,30.50,East,93,0.0,0.0,77,0.00,,,0.00,VWS V14.01,2013-01-01 17:51:00,
2013-01-01 10:56:00,11.1,5.6,30.50,East,93,0.0,0.0,78,0.00,,,0.00,VWS V14.01,2013-01-01 17:56:00,
2013-01-01 11:00:00,11.7,6.5,30.51,East,93,0.0,0.0,79,0.00,,,0.00,VWS V14.01,2013-01-01 18:00:00,
2013-01-01 11:01:00,12.6,7.6,30.51,East,93,0.0,0.0,80,0.00,,,0.00,VWS V14.01,2013-01-01 18:01:00,
2013-01-01 11:06:00,13.8,7.9,30.51,East,93,0.0,0.0,77,0.00,,,0.00,VWS V14.01,2013-01-01 18:06:00,
2013-01-01 11:11:00,14.3,8.4,30.51,East,93,0.0,0.0,77,0.00,,,0.00,VWS V14.01,2013-01-01 18:11:00,
2013-01-01 11:16:00,15.6,9.1,30.50,East,93,0.0,0.0,75,0.00,,,0.00,VWS V14.01,2013-01-01 18:16:00,
2013-01-01 11:21:00,16.1,9.0,30.50,East,93,0.0,0.0,73,0.00,,,0.00,VWS V14.01,2013-01-01 18:21:00,
2013-01-01 11:26:00,15.7,8.0,30.50,East,93,0.0,0.0,71,0.00,,,0.00,VWS V14.01,2013-01-01 18:26:00,
2013-01-01 11:30:00,15.7,8.0,30.48,East,93,0.0,0.0,71,0.00,,,0.00,VWS V14.01,2013-01-01 18:30:00,
2013-01-01 11:31:00,16.1,8.7,30.48,East,93,0.0,0.0,72,0.00,,,0.00,VWS V14.01,2013-01-01 18:31:00,
2013-01-01 11:36:00,16.7,8.9,30.48,East,93,0.0,0.0,71,0.00,,,0.00,VWS V14.01,2013-01-01 18:36:00,
2013-01-01 11:41:00,17.2,8.8,30.48,East,93,0.0,0.0,69,0.00,,,0.00,VWS V14.01,2013-01-01 18:41:00,
2013-01-01 11:46:00,17.3,8.9,30.48,East,93,0.0,0.0,69,0.00,,,0.00,VWS V14.01,2013-01-01 18:46:00,
2013-01-01 11:51:00,17.7,8.6,30.48,East,93,0.0,0.0,67,0.00,,,0.00,VWS V14.01,2013-01-01 18:51:00,
2013-01-01 11:56:00,17.8,8.4,30.48,NW,309,0.0,0.0,66,0.00,,,0.00,VWS V14.01,2013-01-01 18:56:00,
2013-01-01 12:00:00,18.0,8.9,30.46,NW,309,0.0,0.0,67,0.00,,,0.00,VWS V14.01,2013-01-01 19:00:00,
2013-01-01 12:01:00,18.0,8.9,30.46,NW,309,0.0,0.0,67,0.00,,,0.00,VWS V14.01,2013-01-01 19:01:00,
2013-01-01 12:06:00,18.1,9.0,30.46,NNW,335,0.0,0.0,67,0.00,,,0.00,VWS V14.01,2013-01-01 19:06:00,
2013-01-01 12:11:00,18.4,9.0,30.46,NNW,335,0.0,0.0,66,0.00,,,0.00,VWS V14.01,2013-01-01 19:11:00,
2013-01-01 12:16:00,18.6,8.8,30.46,NNW,334,0.0,0.0,65,0.00,,,0.00,VWS V14.01,2013-01-01 19:16:00,
2013-01-01 12:21:00,18.8,9.0,30.46,NNW,334,0.0,0.0,65,0.00,,,0.00,VWS V14.01,2013-01-01 19:21:00,
2013-01-01 12:26:00,18.6,8.8,30.46,NNE,21,0.0,0.0,65,0.00,,,0.00,VWS V14.01,2013-01-01 19:26:00,
2013-01-01 12:30:00,18.4,8.6,30.46,NNE,21,0.0,0.0,65,0.00,,,0.00,VWS V14.01,2013-01-01 19:30:00,
2013-01-01 12:31:00,18.0,8.2,30.46,NNE,21,0.0,0.0,65,0.00,,,0.00,VWS V14.01,2013-01-01 19:31:00,
2013-01-01 12:36:00,17.0,7.9,30.46,NNE,21,0.0,0.0,67,0.00,,,0.00,VWS V14.01,2013-01-01 19:36:00,
2013-01-01 12:41:00,16.1,7.4,30.46,NNE,21,0.0,0.0,68,0.00,,,0.00,VWS V14.01,2013-01-01 19:41:00,
2013-01-01 12:46:00,15.6,7.9,30.47,NE,54,1.0,1.0,71,0.00,,,0.00,VWS V14.01,2013-01-01 19:46:00,
2013-01-01 12:51:00,15.7,8.9,30.47,NNE,22,0.0,1.0,74,0.00,,,0.00,VWS V14.01,2013-01-01 19:51:00,
2013-01-01 12:56:00,15.9,8.8,30.47,SE,125,0.0,1.0,73,0.00,,,0.00,VWS V14.01,2013-01-01 19:56:00,
2013-01-01 13:00:00,15.7,8.6,30.47,SE,125,0.0,1.0,73,0.00,,,0.00,VWS V14.01,2013-01-01 20:00:00,
2013-01-01 13:01:00,15.6,8.5,30.46,SE,125,0.0,0.0,73,0.00,,,0.00,VWS V14.01,2013-01-01 20:01:00,
2013-01-01 13:06:00,15.4,8.3,30.46,SE,125,0.0,0.0,73,0.00,,,0.00,VWS V14.01,2013-01-01 20:06:00,
2013-01-01 13:11:00,15.6,8.8,30.46,SE,125,0.0,0.0,74,0.00,,,0.00,VWS V14.01,2013-01-01 20:11:00,
2013-01-01 13:16:00,15.7,8.9,30.48,SE,125,0.0,0.0,74,0.00,,,0.00,VWS V14.01,2013-01-01 20:16:00,
2013-01-01 13:21:00,15.9,9.1,30.48,SE,125,0.0,1.0,74,0.00,,,0.00,VWS V14.01,2013-01-01 20:21:00,
2013-01-01 13:26:00,15.9,9.4,30.48,SE,125,0.0,1.0,75,0.00,,,0.00,VWS V14.01,2013-01-01 20:26:00,
2013-01-01 13:30:00,15.9,9.1,30.48,SE,125,0.0,1.0,74,0.00,,,0.00,VWS V14.01,2013-01-01 20:30:00,
2013-01-01 13:31:00,15.9,9.1,30.48,SE,125,0.0,0.0,74,0.00,,,0.00,VWS V14.01,2013-01-01 20:31:00,
2013-01-01 13:36:00,16.1,9.0,30.48,SE,125,0.0,0.0,73,0.00,,,0.00,VWS V14.01,2013-01-01 20:36:00,
2013-01-01 13:41:00,15.9,8.2,30.48,SE,125,0.0,0.0,71,0.00,,,0.00,VWS V14.01,2013-01-01 20:41:00,
2013-01-01 13:46:00,16.4,9.9,30.48,SE,125,0.0,0.0,75,0.00,,,0.00,VWS V14.01,2013-01-01 20:46:00,
2013-01-01 13:51:00,17.2,10.1,30.48,SE,125,0.0,0.0,73,0.00,,,0.00,VWS V14.01,2013-01-01 20:51:00,
2013-01-01 13:56:00,17.3,9.8,30.48,SE,127,0.0,0.0,72,0.00,,,0.00,VWS V14.01,2013-01-01 20:56:00,
2013-01-01 14:00:00,17.7,9.3,30.47,SSW,210,0.0,0.0,69,0.00,,,0.00,VWS V14.01,2013-01-01 21:00:00,
2013-01-01 14:01:00,17.8,9.4,30.47,SSW,210,0.0,0.0,69,0.00,,,0.00,VWS V14.01,2013-01-01 21:01:00,
2013-01-01 14:06:00,18.1,9.0,30.47,WNW,289,0.0,0.0,67,0.00,,,0.00,VWS V14.01,2013-01-01 21:06:00,
2013-01-01 14:11:00,18.4,9.3,30.47,WNW,289,0.0,1.0,67,0.00,,,0.00,VWS V14.01,2013-01-01 21:11:00,
2013-01-01 14:16:00,18.4,9.3,30.48,WNW,289,0.0,1.0,67,0.00,,,0.00,VWS V14.01,2013-01-01 21:16:00,
2013-01-01 14:21:00,18.0,9.9,30.48,WNW,289,0.0,1.0,70,0.00,,,0.00,VWS V14.01,2013-01-01 21:21:00,
2013-01-01 14:26:00,18.0,11.4,30.48,WNW,289,0.0,1.0,75,0.00,,,0.00,VWS V14.01,2013-01-01 21:26:00,
2013-01-01 14:30:00,17.8,10.9,30.48,WNW,289,0.0,1.0,74,0.00,,,0.00,VWS V14.01,2013-01-01 21:30:00,
2013-01-01 14:31:00,17.8,10.9,30.48,WNW,289,0.0,0.0,74,0.00,,,0.00,VWS V14.01,2013-01-01 21:31:00,
2013-01-01 14:36:00,17.7,10.8,30.48,WNW,289,0.0,1.0,74,0.00,,,0.00,VWS V14.01,2013-01-01 21:36:00,
2013-01-01 14:41:00,18.0,11.1,30.48,WNW,289,0.0,1.0,74,0.00,,,0.00,VWS V14.01,2013-01-01 21:41:00,
2013-01-01 14:46:00,18.1,11.2,30.49,WNW,289,0.0,1.0,74,0.00,,,0.00,VWS V14.01,2013-01-01 21:46:00,
2013-01-01 14:51:00,17.8,10.6,30.49,WNW,289,0.0,1.0,73,0.00,,,0.00,VWS V14.01,2013-01-01 21:51:00,
2013-01-01 14:56:00,17.5,10.3,30.49,WNW,289,0.0,1.0,73,0.00,,,0.00,VWS V14.01,2013-01-01 21:56:00,
2013-01-01 15:00:00,17.3,10.1,30.50,WNW,289,0.0,1.0,73,0.00,,,0.00,VWS V14.01,2013-01-01 22:00:00,
2013-01-01 15:01:00,17.5,10.6,30.50,WNW,289,0.0,0.0,74,0.00,,,0.00,VWS V14.01,2013-01-01 22:01:00,
2013-01-01 15:06:00,17.5,10.6,30.50,WNW,289,0.0,0.0,74,0.00,,,0.00,VWS V14.01,2013-01-01 22:06:00,
2013-01-01 15:11:00,17.8,10.3,30.50,WNW,289,0.0,0.0,72,0.00,,,0.00,VWS V14.01,2013-01-01 22:11:00,
2013-01-01 15:16:00,18.0,10.2,30.50,WNW,289,0.0,0.0,71,0.00,,,0.00,VWS V14.01,2013-01-01 22:16:00,
2013-01-01 15:21:00,18.6,10.1,30.50,WNW,289,0.0,0.0,69,0.00,,,0.00,VWS V14.01,2013-01-01 22:21:00,
2013-01-01 15:26:00,18.9,10.1,30.50,WNW,289,0.0,0.0,68,0.00,,,0.00,VWS V14.01,2013-01-01 22:26:00,
2013-01-01 15:30:00,18.6,10.1,30.50,WNW,289,0.0,0.0,69,0.00,,,0.00,VWS V14.01,2013-01-01 22:30:00,
2013-01-01 15:31:00,18.4,10.3,30.50,WNW,289,0.0,0.0,70,0.00,,,0.00,VWS V14.01,2013-01-01 22:31:00,
2013-01-01 15:36:00,18.1,10.0,30.50,WNW,289,0.0,0.0,70,0.00,,,0.00,VWS V14.01,2013-01-01 22:36:00,
2013-01-01 15:41:00,17.8,9.7,30.50,WNW,289,0.0,0.0,70,0.00,,,0.00,VWS V14.01,2013-01-01 22:41:00,
2013-01-01 15:46:00,17.8,10.0,30.51,WNW,289,0.0,0.0,71,0.00,,,0.00,VWS V14.01,2013-01-01 22:46:00,
2013-01-01 15:51:00,17.3,9.5,30.51,WNW,289,0.0,0.0,71,0.00,,,0.00,VWS V14.01,2013-01-01 22:51:00,
2013-01-01 15:56:00,17.2,9.4,30.51,WNW,289,0.0,1.0,71,0.00,,,0.00,VWS V14.01,2013-01-01 22:56:00,
2013-01-01 16:00:00,17.2,9.4,30.53,WNW,289,0.0,1.0,71,0.00,,,0.00,VWS V14.01,2013-01-01 23:00:00,
2013-01-01 16:01:00,17.2,9.4,30.53,WNW,289,0.0,0.0,71,0.00,,,0.00,VWS V14.01,2013-01-01 23:01:00,
2013-01-01 16:06:00,17.5,9.7,30.53,WNW,289,0.0,0.0,71,0.00,,,0.00,VWS V14.01,2013-01-01 23:06:00,
2013-01-01 16:11:00,17.3,9.5,30.53,WNW,289,0.0,0.0,71,0.00,,,0.00,VWS V14.01,2013-01-01 23:11:00,
2013-01-01 16:16:00,17.3,9.5,30.50,WNW,289,0.0,0.0,71,0.00,,,0.00,VWS V14.01,2013-01-01 23:16:00,
2013-01-01 16:21:00,17.3,9.2,30.50,WNW,289,0.0,0.0,70,0.00,,,0.00,VWS V14.01,2013-01-01 23:21:00,
2013-01-01 16:26:00,17.0,9.2,30.50,WNW,289,0.0,0.0,71,0.00,,,0.00,VWS V14.01,2013-01-01 23:26:00,
2013-01-01 16:30:00,16.9,9.1,30.50,WNW,289,0.0,0.0,71,0.00,,,0.00,VWS V14.01,2013-01-01 23:30:00,
2013-01-01 16:31:00,16.9,9.1,30.50,WNW,289,0.0,0.0,71,0.00,,,0.00,VWS V14.01,2013-01-01 23:31:00,
2013-01-01 16:36:00,17.2,9.1,30.50,WNW,289,0.0,0.0,70,0.00,,,0.00,VWS V14.01,2013-01-01 23:36:00,
2013-01-01 16:41:00,17.8,9.0,30.50,WNW,289,0.0,0.0,68,0.00,,,0.00,VWS V14.01,2013-01-01 23:41:00,
2013-01-01 16:46:00,18.1,8.7,30.51,WNW,290,0.0,0.0,66,0.00,,,0.00,VWS V14.01,2013-01-01 23:46:00,
2013-01-01 16:51:00,18.9,8.4,30.51,NW,307,0.0,0.0,63,0.00,,,0.00,VWS V14.01,2013-01-01 23:51:00,
2013-01-01 16:56:00,19.4,9.2,30.51,NW,307,0.0,0.0,64,0.00,,,0.00,VWS V14.01,2013-01-01 23:56:00,
2013-01-01 17:00:00,19.2,9.0,30.50,NW,307,0.0,0.0,64,0.00,,,0.00,VWS V14.01,2013-01-02 00:00:00,
2013-01-01 17:01:00,19.1,8.6,30.50,NW,307,0.0,0.0,63,0.00,,,0.00,VWS V14.01,2013-01-02 00:01:00,
2013-01-01 17:06:00,18.4,8.3,30.50,NW,307,0.0,0.0,64,0.00,,,0.00,VWS V14.01,2013-01-02 00:06:00,
2013-01-01 17:11:00,18.9,7.7,30.50,NW,307,0.0,0.0,61,0.00,,,0.00,VWS V14.01,2013-01-02 00:11:00,
2013-01-01 17:16:00,19.4,8.2,30.52,NW,307,0.0,0.0,61,0.00,,,0.00,VWS V14.01,2013-01-02 00:16:00,
2013-01-01 17:21:00,19.2,8.3,30.52,NW,307,0.0,0.0,62,0.00,,,0.00,VWS V14.01,2013-01-02 00:21:00,
2013-01-01 17:26:00,18.9,8.1,30.52,NW,307,0.0,0.0,62,0.00,,,0.00,VWS V14.01,2013-01-02 00:26:00,
2013-01-01 17:30:00,19.1,8.2,30.53,NW,307,0.0,0.0,62,0.00,,,0.00,VWS V14.01,2013-01-02 00:30:00,
2013-01-01 17:31:00,18.9,8.1,30.53,NW,307,0.0,0.0,62,0.00,,,0.00,VWS V14.01,2013-01-02 00:31:00,
2013-01-01 17:36:00,18.3,7.8,30.53,NW,319,0.0,0.0,63,0.00,,,0.00,VWS V14.01,2013-01-02 00:36:00,
2013-01-01 17:41:00,17.8,8.0,30.53,NNW,330,0.0,0.0,65,0.00,,,0.00,VWS V14.01,2013-01-02 00:41:00,
2013-01-01 17:46:00,16.9,7.8,30.54,NNW,340,0.0,0.0,67,0.00,,,0.00,VWS V14.01,2013-01-02 00:46:00,
2013-01-01 17:51:00,16.9,7.2,30.54,NNW,340,0.0,0.0,65,0.00,,,0.00,VWS V14.01,2013-01-02 00:51:00,
2013-01-01 17:56:00,16.7,7.3,30.54,NNW,340,0.0,0.0,66,0.00,,,0.00,VWS V14.01,2013-01-02 00:56:00,
2013-01-01 18:00:00,16.4,8.0,30.57,NNW,340,0.0,0.0,69,0.00,,,0.00,VWS V14.01,2013-01-02 01:00:00,
2013-01-01 18:01:00,16.1,7.7,30.57,NNW,340,0.0,0.0,69,0.00,,,0.00,VWS V14.01,2013-01-02 01:01:00,
2013-01-01 18:06:00,15.6,7.6,30.57,NNW,340,0.0,0.0,70,0.00,,,0.00,VWS V14.01,2013-01-02 01:06:00,
2013-01-01 18:11:00,15.9,6.6,30.57,NNW,340,0.0,0.0,66,0.00,,,0.00,VWS V14.01,2013-01-02 01:11:00,
2013-01-01 18:16:00,15.7,6.7,30.55,NNW,340,0.0,0.0,67,0.00,,,0.00,VWS V14.01,2013-01-02 01:16:00,
2013-01-01 18:21:00,15.2,6.2,30.55,NNW,340,0.0,0.0,67,0.00,,,0.00,VWS V14.01,2013-01-02 01:21:00,
2013-01-01 18:26:00,15.2,6.6,30.55,NNW,340,0.0,0.0,68,0.00,,,0.00,VWS V14.01,2013-01-02 01:26:00,
2013-01-01 18:30:00,15.1,5.5,30.57,NNW,340,0.0,0.0,65,0.00,,,0.00,VWS V14.01,2013-01-02 01:30:00,
2013-01-01 18:31:00,14.8,5.2,30.57,NNW,340,0.0,0.0,65,0.00,,,0.00,VWS V14.01,2013-01-02 01:31:00,
2013-01-01 18:36:00,14.9,5.9,30.57,NW,320,0.0,0.0,67,0.00,,,0.00,VWS V14.01,2013-01-02 01:36:00,
2013-01-01 18:41:00,15.2,6.6,30.57,NW,320,0.0,0.0,68,0.00,,,0.00,VWS V14.01,2013-01-02 01:41:00,
2013-01-01 18:46:00,15.7,7.0,30.57,NW,319,0.0,0.0,68,0.00,,,0.00,VWS V14.01,2013-01-02 01:46:00,
2013-01-01 18:51:00,16.1,7.4,30.57,NW,319,0.0,0.0,68,0.00,,,0.00,VWS V14.01,2013-01-02 01:51:00,
2013-01-01 18:56:00,16.1,7.1,30.57,NW,323,0.0,0.0,67,0.00,,,0.00,VWS V14.01,2013-01-02 01:56:00,
2013-01-01 19:00:00,15.9,6.9,30.56,NW,323,0.0,0.0,67,0.00,,,0.00,VWS V14.01,2013-01-02 02:00:00,
2013-01-01 19:01:00,15.9,7.2,30.56,NW,323,0.0,0.0,68,0.00,,,0.00,VWS V14.01,2013-01-02 02:01:00,
2013-01-01 19:06:00,15.7,6.7,30.56,NW,321,0.0,0.0,67,0.00,,,0.00,VWS V14.01,2013-01-02 02:06:00,
2013-01-01 19:11:00,15.2,6.6,30.56,NW,321,0.0,0.0,68,0.00,,,0.00,VWS V14.01,2013-01-02 02:11:00,
2013-01-01 19:15:00,14.9,6.9,30.61,WNW,296,0.0,1.0,70,0.00,,,0.00,VWS V14.01,2013-01-02 02:15:00,
2013-01-01 19:20:00,15.4,7.1,30.61,NNW,333,0.0,2.0,69,0.00,,,0.00,VWS V14.01,2013-01-02 02:20:00,
2013-01-01 19:26:00,15.6,6.3,30.61,NNW,333,0.0,2.0,66,0.00,,,0.00,VWS V14.01,2013-01-02 02:26:00,
2013-01-01 19:30:00,15.2,6.2,30.61,NNW,333,0.0,2.0,67,0.00,,,0.00,VWS V14.01,2013-01-02 02:30:00,
2013-01-01 19:31:00,15.1,6.5,30.61,WNW,300,1.0,1.0,68,0.00,,,0.00,VWS V14.01,2013-01-02 02:31:00,
2013-01-01 19:36:00,14.9,6.9,30.61,WNW,297,0.0,1.0,70,0.00,,,0.00,VWS V14.01,2013-01-02 02:36:00,
2013-01-01 19:41:00,15.1,6.8,30.61,WNW,292,0.0,1.0,69,0.00,,,0.00,VWS V14.01,2013-01-02 02:41:00,
2013-01-01 19:46:00,14.9,6.6,30.62,WNW,299,0.0,1.0,69,0.00,,,0.00,VWS V14.01,2013-01-02 02:46:00,
2013-01-01 19:51:00,14.9,6.9,30.62,NW,309,0.0,1.0,70,0.00,,,0.00,VWS V14.01,2013-01-02 02:51:00,
2013-01-01 19:56:00,14.9,6.9,30.62,NW,309,0.0,1.0,70,0.00,,,0.00,VWS V14.01,2013-01-02 02:56:00,
2013-01-01 20:00:00,14.9,6.6,30.63,NW,310,0.0,1.0,69,0.00,,,0.00,VWS V14.01,2013-01-02 03:00:00,
2013-01-01 20:01:00,14.8,6.5,30.63,WNW,302,0.0,1.0,69,0.00,,,0.00,VWS V14.01,2013-01-02 03:01:00,
2013-01-01 20:06:00,14.8,6.8,30.63,WNW,300,0.0,1.0,70,0.00,,,0.00,VWS V14.01,2013-01-02 03:06:00,
2013-01-01 20:11:00,14.3,6.0,30.63,WNW,300,0.0,1.0,69,0.00,,,0.00,VWS V14.01,2013-01-02 03:11:00,
2013-01-01 20:16:00,13.1,4.5,30.62,WNW,300,0.0,1.0,68,0.00,,,0.00,VWS V14.01,2013-01-02 03:16:00,
2013-01-01 20:21:00,11.9,3.7,30.62,WNW,300,0.0,1.0,69,0.00,,,0.00,VWS V14.01,2013-01-02 03:21:00,
2013-01-01 20:26:00,11.7,5.0,30.62,WNW,300,0.0,1.0,74,0.00,,,0.00,VWS V14.01,2013-01-02 03:26:00,
2013-01-01 20:30:00,12.3,5.6,30.63,WNW,300,0.0,1.0,74,0.00,,,0.00,VWS V14.01,2013-01-02 03:30:00,
2013-01-01 20:31:00,12.4,5.4,30.63,WNW,300,0.0,0.0,73,0.00,,,0.00,VWS V14.01,2013-01-02 03:31:00,
2013-01-01 20:36:00,12.6,5.0,30.63,WNW,300,0.0,0.0,71,0.00,,,0.00,VWS V14.01,2013-01-02 03:36:00,
2013-01-01 20:40:00,11.9,4.3,30.63,WNW,300,0.0,0.0,71,0.00,,,0.00,VWS V14.01,2013-01-02 03:40:00,
2013-01-01 20:45:00,11.1,3.5,30.64,WNW,300,0.0,0.0,71,0.00,,,0.00,VWS V14.01,2013-01-02 03:45:00,
2013-01-01 20:50:00,10.9,4.8,30.64,WNW,300,0.0,0.0,76,0.00,,,0.00,VWS V14.01,2013-01-02 03:50:00,
2013-01-01 20:55:00,10.7,4.1,30.64,WNW,300,0.0,0.0,74,0.00,,,0.00,VWS V14.01,2013-01-02 03:55:00,
2013-01-01 21:00:00,10.7,5.2,30.65,WNW,300,0.0,0.0,78,0.00,,,0.00,VWS V14.01,2013-01-02 04:00:00,
2013-01-01 21:05:00,11.2,5.1,30.65,WNW,300,0.0,0.0,76,0.00,,,0.00,VWS V14.01,2013-01-02 04:05:00,
2013-01-01 21:10:00,12.1,5.7,30.65,WNW,303,0.0,0.0,75,0.00,,,0.00,VWS V14.01,2013-01-02 04:10:00,
2013-01-01 21:15:00,12.6,5.6,30.63,WNW,303,0.0,0.0,73,0.00,,,0.00,VWS V14.01,2013-01-02 04:15:00,
2013-01-01 21:20:00,12.8,5.5,30.63,WNW,300,0.0,0.0,72,0.00,,,0.00,VWS V14.01,2013-01-02 04:20:00,
2013-01-01 21:25:00,13.1,6.1,30.63,WNW,300,0.0,0.0,73,0.00,,,0.00,VWS V14.01,2013-01-02 04:25:00,
2013-01-01 21:30:00,13.3,6.3,30.64,NW,311,0.0,0.0,73,0.00,,,0.00,VWS V14.01,2013-01-02 04:30:00,
2013-01-01 21:35:00,13.5,6.2,30.64,NW,311,0.0,0.0,72,0.00,,,0.00,VWS V14.01,2013-01-02 04:35:00,
2013-01-01 21:40:00,13.1,5.5,30.64,NW,311,0.0,0.0,71,0.00,,,0.00,VWS V14.01,2013-01-02 04:40:00,
2013-01-01 21:45:00,12.3,4.4,30.65,SSE,161,0.0,0.0,70,0.00,,,0.00,VWS V14.01,2013-01-02 04:45:00,
2013-01-01 21:50:00,11.6,4.3,30.65,SSE,161,0.0,0.0,72,0.00,,,0.00,VWS V14.01,2013-01-02 04:50:00,
2013-01-01 21:55:00,10.9,3.7,30.65,WSW,257,0.0,0.0,72,0.00,,,0.00,VWS V14.01,2013-01-02 04:55:00,
2013-01-01 22:00:00,10.4,3.8,30.66,WSW,257,0.0,0.0,74,0.00,,,0.00,VWS V14.01,2013-01-02 05:00:00,
2013-01-01 22:01:00,10.4,4.1,30.66,South,191,0.0,0.0,75,0.00,,,0.00,VWS V14.01,2013-01-02 05:01:00,
2013-01-01 22:03:00,10.4,4.1,30.66,South,191,0.0,0.0,75,0.00,,,0.00,VWS V14.01,2013-01-02 05:03:00,
2013-01-01 22:08:00,10.9,5.1,30.66,NNW,345,0.0,0.0,77,0.00,,,0.00,VWS V14.01,2013-01-02 05:08:00,
2013-01-01 22:13:00,11.7,5.3,30.66,WNW,300,0.0,1.0,75,0.00,,,0.00,VWS V14.01,2013-01-02 05:13:00,
2013-01-01 22:18:00,12.4,5.4,30.64,WNW,300,0.0,1.0,73,0.00,,,0.00,VWS V14.01,2013-01-02 05:18:00,
2013-01-01 22:23:00,12.8,5.5,30.64,WNW,302,0.0,1.0,72,0.00,,,0.00,VWS V14.01,2013-01-02 05:23:00,
2013-01-01 22:28:00,12.8,5.2,30.64,WNW,302,0.0,1.0,71,0.00,,,0.00,VWS V14.01,2013-01-02 05:28:00,
2013-01-01 22:30:00,12.8,5.5,30.65,WNW,302,0.0,1.0,72,0.00,,,0.00,VWS V14.01,2013-01-02 05:30:00,
2013-01-01 22:33:00,12.6,5.3,30.65,WNW,302,0.0,0.0,72,0.00,,,0.00,VWS V14.01,2013-01-02 05:33:00,
2013-01-01 22:38:00,12.6,5.6,30.65,WNW,302,0.0,0.0,73,0.00,,,0.00,VWS V14.01,2013-01-02 05:38:00,
2013-01-01 22:43:00,12.6,5.3,30.65,WNW,302,0.0,0.0,72,0.00,,,0.00,VWS V14.01,2013-01-02 05:43:00,
2013-01-01 22:48:00,12.6,5.0,30.65,WNW,302,0.0,0.0,71,0.00,,,0.00,VWS V14.01,2013-01-02 05:48:00,
2013-01-01 22:53:00,12.3,5.3,30.65,North,349,0.0,0.0,73,0.00,,,0.00,VWS V14.01,2013-01-02 05:53:00,
2013-01-01 22:58:00,12.1,5.1,30.65,North,350,0.0,0.0,73,0.00,,,0.00,VWS V14.01,2013-01-02 05:58:00,
2013-01-01 23:00:00,11.9,4.9,30.64,North,350,0.0,0.0,73,0.00,,,0.00,VWS V14.01,2013-01-02 06:00:00,
2013-01-01 23:03:00,11.6,4.6,30.65,ENE,63,0.0,0.0,73,0.00,,,0.00,VWS V14.01,2013-01-02 06:03:00,
2013-01-01 23:08:00,11.4,4.4,30.65,NE,56,0.0,0.0,73,0.00,,,0.00,VWS V14.01,2013-01-02 06:08:00,
2013-01-01 23:13:00,11.4,4.7,30.65,NW,304,0.0,0.0,74,0.00,,,0.00,VWS V14.01,2013-01-02 06:13:00,
2013-01-01 23:18:00,11.9,5.2,30.62,NW,326,0.0,0.0,74,0.00,,,0.00,VWS V14.01,2013-01-02 06:18:00,
2013-01-01 23:23:00,12.1,4.8,30.62,NW,320,0.0,0.0,72,0.00,,,0.00,VWS V14.01,2013-01-02 06:23:00,
2013-01-01 23:28:00,12.1,5.1,30.62,NW,313,0.0,0.0,73,0.00,,,0.00,VWS V14.01,2013-01-02 06:28:00,
2013-01-01 23:30:00,12.1,5.1,30.61,NW,311,0.0,0.0,73,0.00,,,0.00,VWS V14.01,2013-01-02 06:30:00,
2013-01-01 23:33:00,12.3,5.0,30.62,NW,314,0.0,0.0,72,0.00,,,0.00,VWS V14.01,2013-01-02 06:33:00,
2013-01-01 23:38:00,12.3,4.7,30.62,NW,315,0.0,0.0,71,0.00,,,0.00,VWS V14.01,2013-01-02 06:38:00,
2013-01-01 23:43:00,12.3,4.7,30.62,NW,317,0.0,0.0,71,0.00,,,0.00,VWS V14.01,2013-01-02 06:43:00,
2013-01-01 23:48:00,11.9,4.3,30.62,NW,317,0.0,0.0,71,0.00,,,0.00,VWS V14.01,2013-01-02 06:48:00,
2013-01-01 23:53:00,11.6,4.3,30.62,NW,317,0.0,0.0,72,0.00,,,0.00,VWS V14.01,2013-01-02 06:53:00,
2013-01-01 23:58:00,11.2,4.2,30.62,NW,310,0.0,0.0,73,0.00,,,0.00,VWS V14.01,2013-01-02 06:58:00,